Location: ????????
(55.6189°N, 38.3031°E)
Time: 18:28:22
(UTC+00:00)

Cosmos 1459 Rocket - Pass Details

Date: 15 November 2019
Orbit: 938 x 999 km, 83.0° (Epoch: 14 December)

Event Time Altitude Azimuth Distance (km) Brightness Sun altitude
Rises 03:28:43 0° 203° (SSW) 3,636 6.9 -12.7°
Reaches altitude 10° 03:31:14 10° 208° (SSW) 2,703 6.2 -12.3°
Maximum altitude 03:37:21 59° 287° (WNW) 1,123 4.0 -11.5°
Drops below altitude 10° 03:43:36 10° 7° (N) 2,761 6.3 -10.7°
Sets 03:46:13 0° 11° (NNE) 3,720 7.0 -10.3°
